When you browse on this site, cookies collect data to enhance your experience and personalize the content and advertising you see.
Visit our Privacy Policy to learn more. By continuing to use the site, you agree to this use of cookies and data.
  • în România
  • Lista ţărilor
  • Pe 7 zile
  • Temperatura apei
  • Meteo pe hartă
  • Widget-uri
  • user-avatar
    Intrare

    Meteo pe oră la Aleşd

    Astăzi, 26 Mai, Marţi

    Timp Temperatura Precipitaţii Vânt Presiune Umiditate
    00:00 +7°C° 0 mm 1 m/s 735 mmHg 91%
    01:00 +7°C° 0 mm 1 m/s 735 mmHg 92%
    02:00 +7°C° 0 mm 1 m/s 735 mmHg 92%
    03:00 +6°C° 0 mm 1 m/s 735 mmHg 93%
    04:00 +6°C° 0 mm 1 m/s 735 mmHg 94%
    05:00 +8°C° 0 mm 1 m/s 735 mmHg 91%
    06:00 +9°C° 0 mm 1 m/s 735 mmHg 88%
    07:00 +10°C° 0 mm 2 m/s 735 mmHg 85%
    08:00 +12°C° 0.3 mm 2 m/s 736 mmHg 81%
    09:00 +13°C° 0.3 mm 3 m/s 736 mmHg 76%
    10:00 +14°C° 0.3 mm 4 m/s 736 mmHg 72%
    11:00 +15°C° 0.5 mm 4 m/s 735 mmHg 71%
    12:00 +15°C° 0.5 mm 4 m/s 735 mmHg 70%
    13:00 +16°C° 0.5 mm 5 m/s 735 mmHg 68%
    14:00 +16°C° 0.3 mm 5 m/s 735 mmHg 69%
    15:00 +15°C° 0.3 mm 5 m/s 734 mmHg 70%
    16:00 +15°C° 0.3 mm 4 m/s 734 mmHg 71%
    17:00 +14°C° 0.3 mm 4 m/s 734 mmHg 76%
    18:00 +12°C° 0.3 mm 3 m/s 734 mmHg 82%
    19:00 +11°C° 0.3 mm 3 m/s 734 mmHg 87%
    20:00 +10°C° 0 mm 2 m/s 735 mmHg 89%
    21:00 +9°C° 0 mm 2 m/s 735 mmHg 90%
    22:00 +8°C° 0 mm 2 m/s 735 mmHg 92%
    23:00 +8°C° 0 mm 2 m/s 735 mmHg 92%

    Mâine, 27 Mai, Miercuri

    Timp Temperatura Precipitaţii Vânt Presiune Umiditate
    00:00 +9°C° 0 mm 1 m/s 735 mmHg 93%
    01:00 +9°C° 0 mm 1 m/s 735 mmHg 94%
    02:00 +8°C° 0 mm 1 m/s 735 mmHg 94%
    03:00 +8°C° 0 mm 1 m/s 735 mmHg 94%
    04:00 +8°C° 0 mm 1 m/s 735 mmHg 94%
    05:00 +9°C° 0 mm 2 m/s 735 mmHg 90%
    06:00 +10°C° 0 mm 2 m/s 736 mmHg 87%
    07:00 +11°C° 0 mm 3 m/s 736 mmHg 84%
    08:00 +12°C° 0.1 mm 4 m/s 736 mmHg 80%
    09:00 +13°C° 0.1 mm 4 m/s 736 mmHg 77%
    10:00 +14°C° 0.1 mm 5 m/s 736 mmHg 74%
    11:00 +15°C° 0.3 mm 5 m/s 736 mmHg 71%
    12:00 +16°C° 0.3 mm 5 m/s 736 mmHg 68%
    13:00 +16°C° 0.3 mm 5 m/s 735 mmHg 65%
    14:00 +17°C° 0.2 mm 4 m/s 735 mmHg 68%
    15:00 +17°C° 0.2 mm 4 m/s 735 mmHg 70%
    16:00 +17°C° 0.2 mm 4 m/s 735 mmHg 72%
    17:00 +16°C° 0.3 mm 3 m/s 735 mmHg 77%
    18:00 +13°C° 0.3 mm 3 m/s 735 mmHg 82%
    19:00 +13°C° 0.3 mm 2 m/s 735 mmHg 87%
    20:00 +12°C° 0 mm 2 m/s 735 mmHg 88%
    21:00 +11°C° 0 mm 1 m/s 735 mmHg 90%
    22:00 +11°C° 0 mm 1 m/s 735 mmHg 91%
    23:00 +10°C° 0 mm 1 m/s 735 mmHg 91%

    Poimâine, 28 Mai, Joi

    Timp Temperatura Precipitaţii Vânt Presiune Umiditate
    00:00 +10°C° 0 mm 1 m/s 734 mmHg 91%
    01:00 +9°C° 0 mm 1 m/s 734 mmHg 91%
    02:00 +9°C° 0 mm 1 m/s 734 mmHg 92%
    03:00 +9°C° 0 mm 1 m/s 734 mmHg 92%
    04:00 +8°C° 0 mm 1 m/s 734 mmHg 93%
    05:00 +10°C° 0 mm 1 m/s 734 mmHg 89%
    06:00 +12°C° 0 mm 1 m/s 734 mmHg 86%
    07:00 +13°C° 0 mm 2 m/s 734 mmHg 82%
    08:00 +15°C° 0.1 mm 2 m/s 734 mmHg 76%
    09:00 +16°C° 0.1 mm 3 m/s 734 mmHg 70%
    10:00 +17°C° 0.1 mm 3 m/s 734 mmHg 64%
    11:00 +18°C° 0.3 mm 3 m/s 733 mmHg 63%
    12:00 +18°C° 0.3 mm 3 m/s 733 mmHg 62%
    13:00 +18°C° 0.3 mm 4 m/s 732 mmHg 60%
    14:00 +18°C° 0.2 mm 4 m/s 732 mmHg 63%
    15:00 +18°C° 0.2 mm 4 m/s 732 mmHg 65%
    16:00 +18°C° 0.2 mm 4 m/s 732 mmHg 68%
    17:00 +15°C° 0.3 mm 4 m/s 732 mmHg 74%
    18:00 +14°C° 0.3 mm 3 m/s 732 mmHg 81%
    19:00 +12°C° 0.3 mm 3 m/s 732 mmHg 87%
    20:00 +12°C° 0 mm 2 m/s 732 mmHg 88%
    21:00 +10°C° 0 mm 2 m/s 732 mmHg 88%
    22:00 +11°C° 0 mm 1 m/s 732 mmHg 89%
    23:00 +11°C° 0 mm 1 m/s 732 mmHg 88%

    29 Mai, Vineri

    Timp Temperatura Precipitaţii Vânt Presiune Umiditate
    00:00 +10°C° 0 mm 1 m/s 732 mmHg 88%
    01:00 +10°C° 0 mm 1 m/s 732 mmHg 87%
    02:00 +10°C° 0 mm 1 m/s 732 mmHg 87%
    03:00 +10°C° 0 mm 1 m/s 732 mmHg 87%
    04:00 +10°C° 0 mm 1 m/s 732 mmHg 87%
    05:00 +11°C° 0 mm 1 m/s 732 mmHg 86%
    06:00 +10°C° 0 mm 2 m/s 732 mmHg 85%
    07:00 +12°C° 0 mm 2 m/s 732 mmHg 85%
    08:00 +13°C° 0.1 mm 2 m/s 732 mmHg 80%
    09:00 +14°C° 0.1 mm 2 m/s 732 mmHg 76%
    10:00 +15°C° 0.1 mm 2 m/s 732 mmHg 72%
    11:00 +16°C° 0.4 mm 3 m/s 732 mmHg 71%
    12:00 +16°C° 0.4 mm 3 m/s 732 mmHg 70%
    13:00 +17°C° 0.4 mm 4 m/s 731 mmHg 68%
    14:00 +15°C° 0.4 mm 4 m/s 731 mmHg 71%
    15:00 +15°C° 0.4 mm 4 m/s 731 mmHg 73%
    16:00 +15°C° 0.4 mm 4 m/s 731 mmHg 75%
    17:00 +14°C° 0.2 mm 3 m/s 731 mmHg 79%
    18:00 +12°C° 0.2 mm 3 m/s 731 mmHg 83%
    19:00 +12°C° 0.2 mm 2 m/s 731 mmHg 86%
    20:00 +10°C° 0 mm 2 m/s 731 mmHg 86%
    21:00 +9°C° 0 mm 2 m/s 731 mmHg 86%
    22:00 +9°C° 0 mm 2 m/s 731 mmHg 86%
    23:00 +8°C° 0 mm 2 m/s 731 mmHg 86%

    30 Mai, Sâmbătă

    Timp Temperatura Precipitaţii Vânt Presiune Umiditate
    00:00 +8°C° 0 mm 2 m/s 731 mmHg 87%
    01:00 +8°C° 0 mm 1 m/s 731 mmHg 88%
    02:00 +8°C° 0.2 mm 1 m/s 731 mmHg 89%
    03:00 +8°C° 0.2 mm 1 m/s 731 mmHg 90%
    04:00 +8°C° 0.2 mm 1 m/s 731 mmHg 92%
    05:00 +9°C° 0.1 mm 1 m/s 731 mmHg 89%
    06:00 +9°C° 0.1 mm 2 m/s 731 mmHg 87%
    07:00 +10°C° 0.1 mm 2 m/s 731 mmHg 85%
    08:00 +12°C° 0.1 mm 2 m/s 731 mmHg 83%
    09:00 +13°C° 0.1 mm 2 m/s 731 mmHg 80%
    10:00 +14°C° 0.1 mm 2 m/s 732 mmHg 78%
    11:00 +14°C° 0.4 mm 2 m/s 731 mmHg 77%
    12:00 +15°C° 0.4 mm 2 m/s 731 mmHg 77%
    13:00 +15°C° 0.4 mm 2 m/s 731 mmHg 76%
    14:00 +15°C° 0.6 mm 2 m/s 731 mmHg 79%
    15:00 +14°C° 0.6 mm 1 m/s 731 mmHg 83%
    16:00 +14°C° 0.6 mm 1 m/s 731 mmHg 86%
    17:00 +13°C° 0.1 mm 1 m/s 731 mmHg 87%
    18:00 +12°C° 0.1 mm 1 m/s 731 mmHg 88%
    19:00 +11°C° 0.1 mm 0 m/s 731 mmHg 89%
    20:00 +12°C° 0 mm 1 m/s 731 mmHg 89%
    21:00 +11°C° 0 mm 1 m/s 731 mmHg 89%
    22:00 +11°C° 0 mm 1 m/s 731 mmHg 88%
    23:00 +11°C° 0 mm 1 m/s 731 mmHg 89%

    31 Mai, Duminică

    Timp Temperatura Precipitaţii Vânt Presiune Umiditate
    00:00 +11°C° 0 mm 1 m/s 731 mmHg 89%
    01:00 +10°C° 0 mm 1 m/s 731 mmHg 90%
    02:00 +10°C° 0.2 mm 1 m/s 731 mmHg 91%
    03:00 +10°C° 0.2 mm 1 m/s 731 mmHg 92%
    04:00 +10°C° 0.2 mm 1 m/s 731 mmHg 93%
    05:00 +11°C° 0.1 mm 1 m/s 731 mmHg 91%
    06:00 +12°C° 0.1 mm 1 m/s 731 mmHg 89%
    07:00 +12°C° 0.1 mm 1 m/s 731 mmHg 87%
    08:00 +14°C° 0.1 mm 1 m/s 731 mmHg 82%
    09:00 +15°C° 0.1 mm 2 m/s 732 mmHg 77%
    10:00 +16°C° 0.1 mm 3 m/s 732 mmHg 72%
    11:00 +17°C° 0.2 mm 3 m/s 732 mmHg 71%
    12:00 +17°C° 0.2 mm 3 m/s 732 mmHg 69%
    13:00 +18°C° 0.2 mm 3 m/s 732 mmHg 68%
    14:00 +18°C° 0.3 mm 3 m/s 731 mmHg 69%
    15:00 +18°C° 0.3 mm 3 m/s 731 mmHg 69%
    16:00 +18°C° 0.3 mm 3 m/s 731 mmHg 70%
    17:00 +17°C° 0.1 mm 3 m/s 731 mmHg 75%
    18:00 +15°C° 0.1 mm 2 m/s 731 mmHg 80%
    19:00 +14°C° 0.1 mm 2 m/s 731 mmHg 85%
    20:00 +13°C° 0 mm 2 m/s 731 mmHg 85%
    21:00 +12°C° 0 mm 2 m/s 731 mmHg 86%
    22:00 +12°C° 0 mm 2 m/s 731 mmHg 87%
    23:00 +10°C° 0 mm 2 m/s 731 mmHg 87%
    Arată mai mult